Вернуться в каталог

NOAA 16 DEB

АктивенPO
NORAD 41150·DEBRIS·🇺🇸 United States

Запущен Sep 21, 2000 с Vandenberg Space Force Base

Loading…

Ближайшие Пролёты (ближайшие 24 часа)

TLE

СвежийSource: Space-Track

Эпоха: Sep 14, 2026, 07:42 UTC

1 41150U 00055CH  26257.32140674  .00017639  00000-0  17720-2 0  9995
2 41150  98.8011  99.6239 0023234  21.2981 338.9196 14.91139950565642

Отслеживайте NOAA 16 DEB в реальном времени с AllMySat

Download on the App Store